User: anonymous   Login
Location: Maiden_LMO
(35.5760°N, 81.2120°W)
Time: 13:21:03
(UTC-05:00)
Language:

ADEOS II - Orbit

View from above orbital plane
View from above orbital plane
View from above satellite
View from above satellite

Ground track
Ground track

The orbit data is extracted from the following two-line orbital elements,

1 27597U 02056A   15029.08466544  .00000278  00000-0  13093-3 0  5090
2 27597 098.2803 029.8822 0001528 063.7399 338.1764 14.26991501631310
Epoch (UTC): 29 January 2015 02:01:55
Eccentricity: 0.0001528
inclination: 98.2803°
perigee height: 801 km
apogee height: 803 km
right ascension of ascending node: 29.8822°
argument of perigee: 63.7399°
revolutions per day: 14.26991501
mean anomaly at epoch: 338.1764°
orbit number at epoch: 63131

The dashed part of the orbit path shows where the satellite is in the earth's shadow,  

DLR